sat.trackr.live / text

‹ back to catalog

STARLINK-30124

NORAD 56690 · 2023-067C

PAYLOAD ACTIVE UNKNOWN

§ Identity

Operator
Country
US
Launch date
2023-05-19
Launch site
AFETR
Launch vehicle
Mass (kg)
RCS (m²)

Purposes: comms

External: N2YO · Heavens-Above · Gunter

§ Orbital elements

Epoch: 2026-09-20T10:31:56.711712Z

Period
94.27 min
Inclination
43.0039°
Eccentricity
0.0001350
Mean motion
15.27578701 rev/d
Perigee alt
482.1 km
Apogee alt
484.0 km
Semi-major
6,861.2 km
B*
1.3469e-5
RAAN
261.4877°
Arg perigee
279.5419°
Mean anomaly
80.5280°
Rev number
18,536

§ Raw data

STARLINK-301241 56690U 23067C   26263.43885083  .00000108  00000+0  13469-4 0  99972 56690  43.0039 261.4877 0001350 279.5419  80.5280 15.27578701185367

JSON: /api/v1/satellites/56690 · /tle

For live sub-satellite position, see the globe view (requires WebGL).

§ Visibility from observer

Set your observer location to see the next 7 days of passes ≥ 10°. The values pass through the URL so the page stays shareable.

No JS? Fill the form by hand. The geolocation button needs JavaScript.